Tracking 28126 objects as of 2-Oct-2023
HD Live streaming from Space Station
objects crossing your sky now

STARLINK-3285

Track STARLINK-3285 now!
10-day predictions
STARLINK-3285 is classified as:


NORAD ID: 50181
Int'l Code: 2021-125AB
Perigee: 545.8 km
Apogee: 547.9 km
Inclination: 53.2 °
Period: 95.4 minutes
Semi major axis: 6917 km
RCS: Unknown
Launch date: December 18, 2021
Source: United States (US)
Launch site: AIR FORCE WESTERN TEST RANGE (AFWTR)
Your satellite tracking list
Your tracking list is empty




NASA's NSSDC Master Catalog

Two Line Element Set (TLE):
1 50181U 21125AB  23274.73519845  .00000115  00000-0  25315-4 0  9993
2 50181  53.2169 284.2934 0001485  93.3392 266.7770 15.08842682102251
Source of the keplerian elements: AFSPC